World > North America > United States > New York

Hourly West Delhi, NY Regional Weather

Feedback E-mail the Weather

Latest News

West Delhi, NY Weather Maps

°F °C°F °C
West Delhi Weather Map
UTC Time: 5/26/2022, 08:35
Your Time:

West Delhi, NY Regional Weather

Expires:202205260900;;599241
ASUS41 KBGM 260810
RWRBGM

REGIONAL WEATHER ROUNDUP
NATIONAL WEATHER SERVICE BINGHAMTON NY
400 AM EDT THU MAY 26 2022

Note: "fair" indicates few or no clouds below 12,000 feet with no
significant weather and/or obstructions to visibility.

* = Station(s) that does not report precipitation, such as rain, 
snow, etc, also no thunder or fog.


NYZ009-015>018-022>025-036-037-044>046-055>057-062-260900
...Central New York...
  
CITY           SKY/WX    TMP DP  RH WIND       PRES   REMARKS
Binghamton     PTCLDY    55  44  66 S9        30.21F                  
Cortland       FAIR      59  46  63 S10       30.19S                  
Dansville      CLOUDY    64  49  57 SE15G22   30.11R                  
Elmira         PTCLDY    61  43  51 S10       30.17S                  
Endicott       MOSUNNY   57  45  62 S3        30.22S                  
Ithaca         PTCLDY    59  48  67 SE13G21   30.18S                  
Hamilton       CLEAR     57  45  62 S10G16    30.20R                  
Monticello     CLOUDY    51  43  74 SE5       30.30S                  
Norwich        CLEAR     55  46  71 S12       30.24F                  
Oneonta        CLEAR     54  45  71 S3        30.24S                  
Penn Yan       PTCLDY    63  44  50 S15G23    30.12S                  
Rome           MOCLDY    63  48  58 SE12      30.21S                  
Seneca Falls   SUNNY     63  48  59 S16G23    30.12F                  
Sidney         MOCLDY    55  46  71 CALM      30.24S                  
Skaneateles    FAIR      63  48  59 S9G22     30.13S                  
Syracuse       CLOUDY    63  48  58 SE12      30.15F                  
$$
 

SKY/WX - Weather  TMP - Temperature  DP - Dew Point  RH - Humidity
WIND - Wind Direction/Speed PRES - Barometric Pressure VSB - Visibility
WCI - Wind Chill Index E13G22 Wind - East Wind 13 mph/Gusts of 22 mph

Trending Headlines

West Delhi Radar Loop



West Delhi Quick Facts


National Two Day Weather Forecast


E-mail the West Delhi Weather Forecast

Voice your opinion or tell us about page issues...